Flag for U.S.A. Weather past 2 weeks in Fayetteville, North Carolina, U.S.A.

Now
69 °F

Clear.


Feels Like: 69 °F
Forecast: 62 / 93 °F
Wind: 3 mph from Southwest

Location: Fayetteville Regional Airport

Current Time: Aug 28, 2014 at 2:05:53 AM

Latest Report: Aug 28, 2014 at 12:53 AM


Visibility: 10 mi

Pressure: 29.96 "Hg

Humidity: 81%

Dew point: 63 °F

Location of FayettevilleLocation

Historic Weather in Fayetteville — Graph

°F

Fayetteville temperature yesterday

Maximum temperature yesterday: 88 °F (at 3:53 PM)
Minimum temperature yesterday: 63 °F (at 6:53 AM)
Average temperature yesterday: 75 °F

Past Weeks' High & Low Weather Summary

 TemperatureHumidityPressure
High96 °F (Aug 22, 1:53 PM)97% (Aug 13, 5:53 AM)30.12 "Hg (Aug 13, 5:53 AM)
Low62 °F (Aug 15, 6:53 AM)30% (Aug 27, 1:53 PM)29.75 "Hg (Aug 18, 7:53 PM)
Average79 °F70%29.95 "Hg
* Reported Aug 13 12:53 AM — Aug 28 12:53 AM, Fayetteville, Weather by CustomWeather, © 2014

Note: Actual official high and low records may vary slightly from our data, if they occured in-between our weather recording intervals... More about our weather records

Advertising

Fayetteville weather history for previous 24 hours

 ConditionsComfort  
Time TempWeatherWind HumidityBarometerVisibility
12:53 AM
Aug 28
69 °FClear.3 mph81%29.96 "Hg10 mi
11:53 PM
Aug 27
71 °FClear.3 mph76%29.97 "Hg10 mi
10:53 PM70 °FClear.3 mph81%29.96 "Hg10 mi
9:53 PM75 °FClear.3 mph66%29.97 "Hg10 mi
8:53 PM77 °FClear.No wind64%29.95 "Hg10 mi
7:53 PM80 °FSunny.5 mph54%29.95 "Hg10 mi
6:53 PM85 °FSunny.8 mph45%29.95 "Hg10 mi
5:53 PM87 °FSunny.9 mph40%29.94 "Hg10 mi
4:53 PM88 °FSunny.8 mph36%29.94 "Hg10 mi
3:53 PM88 °FSunny.13 mph34%29.96 "Hg10 mi
2:53 PM87 °FSunny.9 mph32%29.97 "Hg10 mi
1:53 PM86 °FSunny.14 mph30%29.99 "Hg10 mi
12:53 PM84 °FSunny.8 mph41%30.01 "Hg10 mi
11:53 AM82 °FSunny.13 mph44%30.03 "Hg10 mi
10:53 AM78 °FSunny.10 mph56%30.03 "Hg10 mi
9:53 AM75 °FSunny.13 mph64%30.03 "Hg10 mi
8:53 AM71 °FSunny.12 mph73%30.03 "Hg10 mi
7:53 AM67 °FSunny.10 mph81%30.03 "Hg10 mi
6:53 AM63 °FClear.7 mph90%30.01 "Hg10 mi
5:53 AM64 °FClear.8 mph90%30.00 "Hg10 mi
4:53 AM64 °FClear.6 mph90%30.00 "Hg10 mi
3:53 AM65 °FClear.6 mph91%30.01 "Hg10 mi
2:53 AM65 °FClear.5 mph91%30.01 "Hg10 mi
Weather by CustomWeather, © 2014

See weather overviewHow to use our weather pages